Change the Weather History Date:

Thursday, July 25, 2013

  Actual Average Record
Temperature  
Mean Temperature 72 °F 77 °F  
Max Temperature 76 °F 86 °F 100 °F (2010)
Min Temperature 67 °F 67 °F 55 °F (1947)
Degree Days  
Heating Degree Days 0 0  
Month to date heating degree days 0 0  
Since 1 June heating degree days 0 19  
Since 1 July heating degree days 0 0  
Cooling Degree Days 7 12  
Month to date cooling degree days 440 295  
Year to date cooling degree days 964 606  
Since 1 June cooling degree days 773 522  
Growing Degree Days 20 (Base 50)    
Moisture  
Dew Point 64 °F    
Average Humidity 78    
Maximum Humidity 87    
Minimum Humidity 68    
Precipitation  
Precipitation 0.19 in 0.16 in 2.03 in (1975)
Month to date precipitation 3.81 3.37  
Year to date precipitation 32.38 25.63  
Snow  
Snow 0.00 in 0.00 in 0.00 in (2002)
Month to date snowfall 0.0 0.0  
Since 1 July snowfall 0.0 0.0  
Snow Depth 0.00 in    
Sea Level Pressure  
Sea Level Pressure 29.95 in    
Wind  
Wind Speed 9 mph (NNE)    
Max Wind Speed 16 mph    
Max Gust Speed 21 mph    
Visibility 10 miles    
Events Rain    
T = Trace of Precipitation, MM = Missing Value Source: NWS Daily Summary

Daily Weather History Graph

Daily Weather History Graph

Search for Another Location

Airport or City:

Trip Planner

Search our weather history database for the weather conditions in past years. The results will help you decide how hot, cold, wet, or windy it might be!

Date:

Astronomy

Jul. 25, 2013 Rise Set
Actual Time 5:58 AM EDT 8:18 PM EDT
Civil Twilight 5:28 AM EDT 8:48 PM EDT
Nautical Twilight 4:51 AM EDT 9:24 PM EDT
Astronomical Twilight 4:10 AM EDT 10:05 PM EDT
Moon 10:01 PM EDT (7/25) 9:21 AM EDT (7/25)
Length of Visible Light 15h 19m
Length of Day
14h 19m
Waning Gibbous, 88% of the Moon is Illuminated
Jul 25
Waning Gibbous
Jul 29
Last Quarter
Aug 6
New
Aug 14
First Quarter
Aug 20
Full

Hourly Weather History & Observations

Time (EDT) Temp. Dew Point Humidity Pressure Visibility Wind Dir Wind Speed Gust Speed Precip Events Conditions
12:54 AM 75.0 °F 66.9 °F 76% 29.87 in 10.0 mi North 6.9 mph - N/A   Clear
1:54 AM 73.9 °F 66.0 °F 76% 29.87 in 10.0 mi North 8.1 mph - N/A   Partly Cloudy
2:54 AM 73.9 °F 64.9 °F 73% 29.88 in 10.0 mi North 8.1 mph - N/A   Scattered Clouds
3:54 AM 73.0 °F 63.0 °F 71% 29.88 in 10.0 mi North 9.2 mph - N/A   Overcast
4:54 AM 68.0 °F 64.0 °F 87% 29.90 in 4.0 mi NNE 5.8 mph - 0.12 in Rain Light Rain
5:54 AM 66.9 °F 63.0 °F 87% 29.89 in 10.0 mi North 6.9 mph - 0.04 in Rain Light Rain
6:54 AM 66.9 °F 62.1 °F 84% 29.91 in 10.0 mi NNE 5.8 mph - 0.01 in Rain Light Rain
7:54 AM 66.9 °F 62.1 °F 84% 29.93 in 10.0 mi North 6.9 mph - 0.00 in   Overcast
8:22 AM 66.2 °F 62.6 °F 88% 29.93 in 10.0 mi NNE 6.9 mph - 0.00 in Rain Light Rain
8:37 AM 66.2 °F 62.6 °F 88% 29.92 in 10.0 mi North 8.1 mph - 0.00 in Rain Light Rain
8:54 AM 66.9 °F 63.0 °F 87% 29.94 in 10.0 mi North 9.2 mph - 0.00 in Rain Light Rain
9:05 AM 68.0 °F 62.6 °F 83% 29.93 in 10.0 mi NNE 9.2 mph - 0.00 in Rain Light Rain
9:54 AM 68.0 °F 64.0 °F 87% 29.94 in 7.0 mi NNE 8.1 mph - 0.02 in Rain Light Rain
10:24 AM 69.8 °F 64.4 °F 83% 29.92 in 10.0 mi NNE 9.2 mph - 0.00 in   Overcast
10:38 AM 69.8 °F 64.4 °F 83% 29.93 in 10.0 mi NNE 8.1 mph - 0.00 in   Overcast
10:54 AM 71.1 °F 64.9 °F 81% 29.95 in 10.0 mi North 8.1 mph - 0.00 in   Overcast
11:04 AM 71.6 °F 64.4 °F 78% 29.95 in 10.0 mi North 8.1 mph - N/A   Overcast
12:54 PM 73.9 °F 66.0 °F 76% 29.97 in 10.0 mi NNE 10.4 mph - N/A   Overcast
1:54 PM 75.9 °F 66.9 °F 74% 29.97 in 10.0 mi NNE 13.8 mph 19.6 mph N/A   Overcast
2:54 PM 73.9 °F 66.0 °F 76% 29.96 in 10.0 mi NNE 9.2 mph - N/A   Overcast
3:54 PM 75.0 °F 66.0 °F 73% 29.96 in 10.0 mi NNE 12.7 mph - N/A   Overcast
4:15 PM 73.4 °F 64.4 °F 73% 29.96 in 10.0 mi NNE 12.7 mph 19.6 mph N/A   Overcast
4:54 PM 73.9 °F 64.9 °F 73% 29.97 in 10.0 mi NNE 10.4 mph - N/A   Overcast
5:54 PM 73.9 °F 64.9 °F 73% 29.98 in 10.0 mi NNE 9.2 mph - N/A   Overcast
6:54 PM 73.0 °F 64.0 °F 73% 29.99 in 10.0 mi North 9.2 mph - N/A   Overcast
7:54 PM 72.0 °F 64.0 °F 76% 29.99 in 10.0 mi North 8.1 mph - N/A   Overcast
8:54 PM 72.0 °F 63.0 °F 73% 30.01 in 10.0 mi North 10.4 mph - N/A   Overcast
9:54 PM 71.1 °F 63.0 °F 75% 30.02 in 10.0 mi NE 8.1 mph - N/A   Overcast
10:07 PM 71.6 °F 62.6 °F 73% 30.01 in 10.0 mi NNE 6.9 mph - N/A   Overcast
10:19 PM 71.6 °F 62.6 °F 73% 30.02 in 10.0 mi NNE 4.6 mph - N/A   Overcast
10:54 PM 70.0 °F 63.0 °F 78% 30.02 in 10.0 mi NE 5.8 mph - N/A   Overcast
11:54 PM 69.1 °F 63.0 °F 81% 30.01 in 10.0 mi NE 6.9 mph - N/A   Mostly Cloudy